Location: Bacea
(45.9500°N, 22.6667°E)
Time: 20:20:39
(UTC+00:00)

Spot 2 - Pass Details

Date: 16 October 2021
Orbit: 570 x 772 km, 98.7° (Epoch: 29 November)

Event Time Altitude Azimuth Distance (km) Brightness Sun altitude
Rises 16:33:15 0° 149° (SSE) 2,765 7.1 -9.8°
Reaches altitude 10° 16:35:24 10° 144° (SE) 1,879 6.2 -10.1°
Maximum altitude 16:39:18 48° 70° (ENE) 776 4.2 -10.8°
Drops below altitude 10° 16:43:20 10° 356° (N) 1,955 6.7 -11.5°
Sets 16:45:37 0° 351° (N) 2,890 7.6 -11.9°
